| time (UTC) | temp C | wind direction | speed KPH | gust KPH | rain 1hr cm | rain 24hr cm | rain mn cm | humidity % | barometer mb |
| 20260510044525 | 22 | 71 | 8.0 | 22.5 | 0.00 | 0.00 | 0.00 | 37 | 1023.8 |
| 20260510041526 | 22 | 59 | 8.0 | 17.7 | 0.00 | 0.00 | 0.00 | 38 | 1024.2 |
| 20260510040026 | 22 | 55 | 8.0 | 19.3 | 0.00 | 0.00 | 0.00 | 40 | 1024.5 |
| 20260510034524 | 21 | 42 | 11.3 | 19.3 | 0.00 | 0.00 | 0.00 | 41 | 1024.8 |
| 20260510033027 | 21 | 61 | 9.7 | 22.5 | 0.00 | 0.00 | 0.00 | 44 | 1024.9 |
| 20260510031531 | 20 | 73 | 11.3 | 27.4 | 0.00 | 0.00 | 0.00 | 44 | 1025.1 |
| 20260510030021 | 20 | 76 | 17.7 | 25.7 | 0.00 | 0.00 | 0.00 | 46 | 1025.1 |
| 20260510024526 | 20 | 45 | 14.5 | 27.4 | 0.00 | 0.00 | 0.00 | 46 | 1025.2 |
| 20260510023018 | 19 | 71 | 12.9 | 24.1 | 0.00 | 0.00 | 0.00 | 47 | 1025.3 |
| 20260510021558 | 18 | 47 | 12.9 | 27.4 | 0.00 | 0.00 | 0.00 | 49 | 1025.6 |
| 20260510020028 | 18 | 57 | 14.5 | 25.7 | 0.00 | 0.00 | 0.00 | 50 | 1025.7 |
| 20260510014531 | 17 | 82 | 11.3 | 22.5 | 0.00 | 0.00 | 0.00 | 52 | 1025.9 |
| 20260510013028 | 17 | 68 | 12.9 | 25.7 | 0.00 | 0.00 | 0.00 | 54 | 1025.8 |
| 20260510011529 | 16 | 138 | 17.7 | 29.0 | 0.00 | 0.00 | 0.00 | 54 | 1025.8 |
| 20260510010033 | 16 | 102 | 12.9 | 24.1 | 0.00 | 0.00 | 0.00 | 56 | 1025.9 |
| 20260510004527 | 15 | 90 | 14.5 | 25.7 | 0.00 | 0.00 | 0.00 | 57 | 1025.8 |
| 20260510001524 | 15 | 87 | 14.5 | 25.7 | 0.00 | 0.00 | 0.00 | 60 | 1025.7 |
| 20260510000026 | 14 | 31 | 14.5 | 22.5 | 0.00 | 0.00 | 0.00 | 60 | 1025.6 |
| 20260509234523 | 13 | 70 | 12.9 | 22.5 | 0.00 | 0.00 | 0.00 | 62 | 1025.5 |
| 20260509233032 | 13 | 78 | 12.9 | 22.5 | 0.00 | 0.00 | 0.00 | 63 | 1025.6 |
| 20260509231529 | 13 | 98 | 11.3 | 20.9 | 0.00 | 0.00 | 0.00 | 64 | 1025.4 |
| 20260509230035 | 12 | 103 | 11.3 | 20.9 | 0.00 | 0.00 | 0.00 | 63 | 1025.3 |
| 20260509224525 | 12 | 82 | 12.9 | 22.5 | 0.00 | 0.00 | 0.00 | 63 | 1025.1 |
| 20260509223002 | 12 | 102 | 12.9 | 20.9 | 0.00 | 0.00 | 0.00 | 63 | 1025.1 |
| 20260509221506 | 13 | 83 | 12.9 | 19.3 | 0.00 | 0.00 | 0.00 | 62 | 1025.1 |
| 20260509220017 | 13 | 96 | 12.9 | 19.3 | 0.00 | 0.00 | 0.00 | 62 | 1025.0 |
| 20260509214505 | 13 | 89 | 12.9 | 17.7 | 0.00 | 0.00 | 0.00 | 61 | 1024.9 |
| 20260509213013 | 13 | 71 | 9.7 | 16.1 | 0.00 | 0.00 | 0.00 | 60 | 1024.7 |
| 20260509211520 | 13 | 74 | 12.9 | 19.3 | 0.00 | 0.00 | 0.00 | 59 | 1024.7 |
| 20260509204515 | 13 | 84 | 11.3 | 20.9 | 0.00 | 0.00 | 0.00 | 58 | 1024.5 |
| 20260509203025 | 13 | 71 | 9.7 | 20.9 | 0.00 | 0.00 | 0.00 | 58 | 1024.4 |
| 20260509201514 | 14 | 86 | 12.9 | 20.9 | 0.00 | 0.00 | 0.00 | 57 | 1024.3 |
| 20260509200019 | 14 | 54 | 14.5 | 22.5 | 0.00 | 0.00 | 0.00 | 56 | 1024.1 |
| 20260509194506 | 14 | 60 | 12.9 | 22.5 | 0.00 | 0.00 | 0.00 | 56 | 1024.2 |
| 20260509191522 | 14 | 68 | 11.3 | 22.5 | 0.00 | 0.00 | 0.00 | 55 | 1024.1 |
| 20260509190008 | 14 | 74 | 9.7 | 20.9 | 0.00 | 0.00 | 0.00 | 55 | 1024.2 |
| 20260509184516 | 14 | 98 | 12.9 | 19.3 | 0.00 | 0.00 | 0.00 | 54 | 1024.2 |
| 20260509183026 | 15 | 93 | 12.9 | 20.9 | 0.00 | 0.00 | 0.00 | 53 | 1024.2 |
| 20260509181512 | 15 | 72 | 12.9 | 20.9 | 0.00 | 0.00 | 0.00 | 53 | 1024.3 |
| 20260509174527 | 14 | 54 | 11.3 | 17.7 | 0.00 | 0.00 | 0.00 | 54 | 1024.4 |
| 20260509173023 | 13 | 47 | 8.0 | 12.9 | 0.00 | 0.00 | 0.00 | 55 | 1024.6 |
| 20260509171531 | 14 | 82 | 8.0 | 12.9 | 0.00 | 0.00 | 0.00 | 54 | 1024.6 |
| 20260509170011 | 14 | 75 | 8.0 | 14.5 | 0.00 | 0.00 | 0.00 | 54 | 1024.5 |
| 20260509164521 | 14 | 90 | 9.7 | 16.1 | 0.00 | 0.00 | 0.00 | 53 | 1024.5 |
| 20260509160020 | 14 | 96 | 9.7 | 16.1 | 0.00 | 0.00 | 0.00 | 52 | 1024.5 |
| 20260509154528 | 14 | 101 | 11.3 | 14.5 | 0.00 | 0.00 | 0.00 | 51 | 1024.6 |
| 20260509153032 | 15 | 85 | 9.7 | 14.5 | 0.00 | 0.00 | 0.00 | 51 | 1024.7 |
| 20260509150024 | 15 | 94 | 8.0 | 12.9 | 0.00 | 0.00 | 0.00 | 49 | 1025.0 |
| 20260509144522 | 15 | 82 | 9.7 | 12.9 | 0.00 | 0.00 | 0.00 | 48 | 1025.0 |
| 20260509143028 | 15 | 98 | 11.3 | 16.1 | 0.00 | 0.00 | 0.00 | 47 | 1025.1 |
| 20260509141527 | 15 | 88 | 11.3 | 14.5 | 0.00 | 0.00 | 0.00 | 47 | 1025.2 |
| 20260509140025 | 16 | 94 | 11.3 | 14.5 | 0.00 | 0.00 | 0.00 | 46 | 1025.2 |
| 20260509134526 | 16 | 98 | 11.3 | 16.1 | 0.00 | 0.00 | 0.00 | 46 | 1025.2 |
| 20260509133022 | 16 | 79 | 11.3 | 14.5 | 0.00 | 0.00 | 0.00 | 46 | 1025.1 |
| 20260509131524 | 16 | 86 | 8.0 | 11.3 | 0.00 | 0.00 | 0.00 | 46 | 1025.2 |
| 20260509130012 | 16 | 100 | 8.0 | 14.5 | 0.00 | 0.00 | 0.00 | 45 | 1025.1 |
| 20260509124522 | 16 | 95 | 6.4 | 12.9 | 0.00 | 0.00 | 0.00 | 45 | 1024.9 |
| 20260509123010 | 17 | 134 | 9.7 | 16.1 | 0.00 | 0.00 | 0.00 | 43 | 1024.8 |
| 20260509121515 | 17 | 117 | 11.3 | 16.1 | 0.00 | 0.00 | 0.00 | 42 | 1024.7 |
| 20260509120023 | 17 | 94 | 12.9 | 17.7 | 0.00 | 0.00 | 0.00 | 42 | 1024.6 |
| 20260509114512 | 18 | 114 | 12.9 | 17.7 | 0.00 | 0.00 | 0.00 | 42 | 1024.5 |
| 20260509113020 | 18 | 101 | 12.9 | 16.1 | 0.00 | 0.00 | 0.00 | 43 | 1024.4 |
| 20260509111526 | 18 | 114 | 9.7 | 16.1 | 0.00 | 0.00 | 0.00 | 42 | 1024.4 |
| 20260509110013 | 18 | 107 | 9.7 | 12.9 | 0.00 | 0.00 | 0.00 | 41 | 1024.4 |
| 20260509104526 | 18 | 119 | 8.0 | 12.9 | 0.00 | 0.00 | 0.00 | 42 | 1024.4 |
| 20260509101520 | 19 | 111 | 6.4 | 11.3 | 0.00 | 0.00 | 0.00 | 41 | 1024.5 |
| 20260509100028 | 20 | 108 | 6.4 | 11.3 | 0.00 | 0.00 | 0.00 | 39 | 1024.5 |
| 20260509094515 | 20 | 110 | 4.8 | 9.7 | 0.00 | 0.00 | 0.00 | 39 | 1024.3 |
| 20260509093024 | 20 | 117 | 4.8 | 11.3 | 0.00 | 0.00 | 0.00 | 37 | 1024.4 |
| 20260509090033 | 21 | 113 | 6.4 | 11.3 | 0.00 | 0.00 | 0.00 | 37 | 1024.4 |
| 20260509084526 | 21 | 113 | 3.2 | 14.5 | 0.00 | 0.00 | 0.00 | 37 | 1024.4 |
| 20260509083026 | 22 | 126 | 6.4 | 11.3 | 0.00 | 0.00 | 0.00 | 36 | 1024.3 |
| 20260509080026 | 22 | 117 | 4.8 | 16.1 | 0.00 | 0.00 | 0.00 | 35 | 1024.2 |
| 20260509074516 | 22 | 109 | 4.8 | 16.1 | 0.00 | 0.00 | 0.00 | 35 | 1024.2 |
| 20260509073008 | 22 | 119 | 6.4 | 14.5 | 0.00 | 0.00 | 0.00 | 33 | 1024.1 |
| 20260509071511 | 22 | 61 | 6.4 | 16.1 | 0.00 | 0.00 | 0.00 | 34 | 1024.0 |
| 20260509064505 | 22 | 119 | 14.5 | 20.9 | 0.00 | 0.00 | 0.00 | 34 | 1023.8 |
| 20260509063025 | 22 | 88 | 8.0 | 24.1 | 0.00 | 0.00 | 0.00 | 35 | 1023.5 |
| 20260509061525 | 22 | 117 | 6.4 | 19.3 | 0.00 | 0.00 | 0.00 | 36 | 1023.5 |
| 20260509060011 | 22 | 77 | 11.3 | 22.5 | 0.00 | 0.00 | 0.00 | 37 | 1023.6 |
| 20260509054519 | 22 | 93 | 11.3 | 22.5 | 0.00 | 0.00 | 0.00 | 37 | 1023.6 |
| 20260509053005 | 22 | 95 | 14.5 | 20.9 | 0.00 | 0.00 | 0.00 | 36 | 1023.9 |
| 20260509051516 | 22 | 98 | 14.5 | 24.1 | 0.00 | 0.00 | 0.00 | 38 | 1024.1 |
| 20260509050023 | 22 | 144 | 12.9 | 25.7 | 0.00 | 0.00 | 0.00 | 39 | 1024.2 |